Home   Weather   Cuxhaven   Past weeks

Flag for Germany Past Weather in Cuxhaven, Lower Saxony, Germany — Yesterday and Last 2 Weeks

Now
41 °F

Light rain. Passing clouds.


Feels Like: 32 °F
Forecast: 41 / 46 °F
Wind: 18 mph from Southwest

Location: Nordholz

Current Time: Feb 25, 2017 at 9:53:25 pm

Latest Report: Feb 25, 2017 at 8:20 pm


Visibility: N/A

Pressure: 29.83 "Hg

Humidity: 81%

Dew Point: 36 °F

Location of CuxhavenLocation

Past Weather in Cuxhaven — Graph

°F

Cuxhaven Temperature Yesterday

Maximum temperature yesterday: 43 °F (at 1:20 pm)
Minimum temperature yesterday: 36 °F (at 1:20 am)
Average temperature yesterday: 38 °F

High & Low Weather Summary for the Past Weeks

 TemperatureHumidityPressure
High52 °F (Feb 15, 3:20 pm)100% (Feb 16, 11:20 am)30.63 "Hg (Feb 16, 11:20 am)
Low19 °F (Feb 14, 3:20 am)44% (Feb 15, 3:20 pm)28.91 "Hg (Feb 23, 8:20 pm)
Average38 °F86%30.06 "Hg
* Reported Feb 10 8:20 pm — Feb 25 8:20 pm, Cuxhaven, Weather by CustomWeather, © 2017

Note: Actual official high and low records may vary slightly from our data, if they occured in-between our weather recording intervals... More about our weather records

Advertising

Cuxhaven Weather History for the Previous 24 Hours

Scroll right to see more
 ConditionsComfort  
Time TempWeatherWind HumidityBarometerVisibility
8:20 pm
Sat, Feb 25
41 °FLight rain. Passing clouds.18 mph81%29.83 "HgN/A
7:20 pm41 °FPassing clouds.18 mph81%29.83 "HgN/A
6:20 pm39 °FPassing clouds.17 mph87%29.86 "HgN/A
5:20 pm39 °FPartly sunny.21 mph87%29.86 "HgN/A
4:41 pm37 °FBroken clouds.17 mph93%29.89 "HgN/A
4:20 pm37 °FPartly sunny.18 mph93%29.89 "Hg6 mi
3:20 pm37 °FRain. Fog.21 mph93%29.92 "Hg3 mi
2:20 pm37 °FLight rain. Fog.20 mph93%29.95 "Hg3 mi
1:20 pm39 °FDrizzle. Broken clouds.18 mph87%29.98 "Hg4 mi
12:45 pm39 °FDrizzle. Partly sunny.16 mph87%29.98 "Hg4 mi
12:20 pm39 °FLight rain. Broken clouds.14 mph87%30.01 "Hg4 mi
11:38 am37 °FLight rain. More clouds than sun.14 mph93%30.01 "Hg4 mi
11:20 am37 °FLight rain. More clouds than sun.14 mph93%30.01 "Hg5 mi
10:20 am37 °FLight rain. More clouds than sun.10 mph87%30.01 "HgN/A
9:20 am36 °FPartly sunny.9 mph93%30.01 "HgN/A
8:20 am34 °FMostly cloudy.10 mph100%30.04 "Hg5 mi
7:20 am34 °FPassing clouds.8 mph93%30.04 "Hg4 mi
6:20 am34 °FPassing clouds.8 mph93%30.04 "HgN/A
5:20 am34 °FPassing clouds.8 mph93%30.04 "HgN/A
4:20 am34 °FPassing clouds.8 mph93%30.04 "HgN/A
3:20 am36 °FPassing clouds.7 mph87%30.04 "HgN/A
2:20 am36 °FPartly cloudy.10 mph87%30.04 "HgN/A
1:20 am36 °FPassing clouds.10 mph87%30.04 "HgN/A
12:20 am37 °FChilly.12 mph87%30.01 "HgN/A
11:20 pm
Fri, Feb 24
37 °FChilly.10 mph87%30.01 "HgN/A
10:20 pm36 °FChilly.10 mph93%30.01 "HgN/A
9:20 pm36 °FPassing clouds.12 mph87%29.98 "HgN/A
Weather by CustomWeather, © 2017

See weather overviewHow to use our weather pages